Location: Martz Observatory
(42.0083°N, 79.0667°W)
Time: 13:04:16
(UTC-04:00)

Meteor 1-23 Rocket - Visible Passes

Search period start: 28 September 2016 00:00
Search period end: 08 October 2016 00:00
Orbit: 837 x 888 km, 81.3° (Epoch: 27 September)

Date Brightness Start Highest point End Pass type
(mag) Time Alt. Az. Time Alt. Az. Time Alt. Az.
28 Sep 7.1 03:35:32 10° E 03:36:44 11° E 03:37:57 10° ENE visible
28 Sep 4.2 05:14:16 15° S 05:18:56 87° E 05:24:40 10° N visible
29 Sep 7.1 03:27:19 10° E 03:28:25 11° E 03:29:30 10° ENE visible
29 Sep 4.2 05:07:13 25° S 05:10:35 86° E 05:16:20 10° N visible
30 Sep 7.0 03:19:08 10° E 03:20:05 10° E 03:21:02 10° ENE visible
30 Sep 4.2 04:59:59 38° S 05:02:15 85° E 05:08:00 10° N visible
30 Sep 5.9 06:43:31 10° W 06:46:15 14° WNW 06:49:01 10° NNW visible
01 Oct 7.0 03:10:59 10° E 03:11:46 10° E 03:12:33 10° ENE visible
01 Oct 4.2 04:52:38 56° S 04:53:55 85° E 04:59:41 10° N visible
01 Oct 5.9 06:35:07 10° W 06:37:54 14° WNW 06:40:44 10° NNW visible
02 Oct 7.0 03:02:52 10° E 03:03:26 10° E 03:04:01 10° ENE visible
02 Oct 4.1 04:45:11 77° SSE 04:45:35 84° E 04:51:21 10° N visible
02 Oct 5.9 06:27:30 12° W 06:29:34 14° WNW 06:32:27 10° NNW visible
03 Oct 7.1 02:55:19 10° ENE 02:55:19 10° ENE 02:55:20 10° ENE visible
03 Oct 4.3 04:37:38 77° NE 04:37:38 77° NE 04:43:00 10° NNE visible
03 Oct 5.8 06:19:58 13° WNW 06:21:13 14° WNW 06:24:10 10° NNW visible
04 Oct 4.6 04:30:02 59° NNE 04:30:02 59° NNE 04:34:41 10° NNE visible
04 Oct 5.9 06:12:20 14° WNW 06:12:52 14° WNW 06:15:53 10° NNW visible
05 Oct 5.0 04:22:21 46° NNE 04:22:21 46° NNE 04:26:21 10° NNE visible
05 Oct 5.9 06:04:39 14° WNW 06:04:39 14° WNW 06:07:36 10° NNW visible
06 Oct 5.4 04:14:37 37° NNE 04:14:37 37° NNE 04:18:01 10° NNE visible
06 Oct 6.0 05:56:55 14° NW 05:56:55 14° NW 05:59:19 10° NNW visible
07 Oct 5.7 04:06:50 31° NNE 04:06:50 31° NNE 04:09:42 10° NNE visible
07 Oct 6.1 05:49:08 14° NW 05:49:08 14° NW 05:51:01 10° NNW visible
